Location: Pescara
(42.4670°N, 14.2170°E)
Time: 18:01:03
(UTC+02:00)

ISS - Pass Details

Date: 19 May 2021
Orbit: 417 x 422 km, 51.6° (Epoch: 18 June)

Event Time Altitude Azimuth Distance (km) Brightness Sun altitude
Rises 00:30:23 0° 303° (WNW) 2,370 0.6 -27.4°
Reaches altitude 10° 00:32:55 10° 322° (NW) 1,506 -0.2 -27.5°
Maximum altitude 00:35:26 19° 10° (N) 1,069 -1.0 -27.5°
Enters shadow 00:36:03 18° 25° (NNE) 1,099 -1.1 -27.5°
